Location: Wien
(48.2082°N, 16.3738°E)
Time: 11:42:48
(UTC+02:00)

Tiros 1 despin weight - Pass Details

Date: 20 September 2024
Orbit: 573 x 615 km, 48.2° (Epoch: 06 October)

Event Time Altitude Azimuth Distance (km) Brightness Sun altitude
Rises 04:51:10 0° 268° (W) 2,871 - -18.2°
Reaches altitude 10° 04:53:27 10° 269° (W) 1,971 - -17.9°
Exits shadow 04:56:00 33° 270° (W) 1,032 ? -17.5°
Maximum altitude 04:58:00 89° 0° (N) 622 ? -17.2°
Drops below altitude 10° 05:02:35 10° 90° (E) 1,981 ? -16.5°
Sets 05:04:53 0° 90° (E) 2,886 ? -16.1°
